Main page
METAR-TAF:

METAR-TAF

Airports :

Chennault International Airport

Lake Charles, Louisiana, United States

latitude: 30-13N, longitude: 093-09W, elevation: 13 ft

Current weather observation

The report was made 12 minutes ago, at 18:55 UTC
Wind 6 mph from the South
Temperature 63°F
Humidity 94%
Pressure 30.01 in. Hg
Visibility: 7 miles
Overcast at a height of 700 ft

METAR: KCWF 181855Z 17005KT 7SM OVC007 17/16 A3001

Time: 13:07 (19:07 UTC)


TAF: missing

Weather observations and forecasts of more than 4000 airports (METAR and TAF reports).

The available stations are represented by yellow and red dots on the map.

Hover mouse over dot to see the name of the station.

Then click to see weather observations and forecasts.

To change the map : click on the green buttons with a black cross to zoom in, on the green button with a dash to zoom out, or on the green arrows for adjacent maps.


METAR-TAF: